This is the latest recevied weather packets stored in our database for station/object WA4IKQ. If no packets are shown the sender has not sent any weather packets the latest 10 day(s).
| Time | Temp. | Humidity | Pressure | Rain* | Wind** | Luminosity | Snow |
|---|---|---|---|---|---|---|---|
| 1777919530 | 26.67° C | 49% | 1016.4 hPa | 0 mm | 1.79 m/s, 45° | - | - |
| 1777919399 | 26.67° C | 49% | 1016.4 hPa | 0 mm | 1.79 m/s, 45° | - | - |
| 1777919242 | 26.67° C | 49% | 1016.4 hPa | 0 mm | 3.13 m/s, 13° | - | - |
| 1777919103 | 26.67° C | 49% | 1016.4 hPa | 0 mm | 3.13 m/s, 13° | - | - |
| 1777919076 | 26.67° C | 49% | 1016.5 hPa | 0 mm | 3.58 m/s, 24° | - | - |
| 1777918982 | 26.67° C | 49% | 1016.5 hPa | 0 mm | 3.58 m/s, 24° | - | - |
| 1777918800 | 26.67° C | 49% | 1016.5 hPa | 0 mm | 3.58 m/s, 24° | - | - |
| 1777918677 | 26.67° C | 48% | 1016.5 hPa | 0 mm | 3.58 m/s, 32° | - | - |
| 1777918501 | 26.67° C | 48% | 1016.5 hPa | 0 mm | 3.58 m/s, 32° | - | - |
| 1777918343 | 26.67° C | 49% | 1016.5 hPa | 0 mm | 3.13 m/s, 14° | - | - |
| 1777918200 | 26.67° C | 49% | 1016.5 hPa | 0 mm | 3.13 m/s, 14° | - | - |
| 1777917997 | 26.67° C | 49% | 1016.7 hPa | 0 mm | 1.34 m/s, 25° | - | - |
| 1777917901 | 26.67° C | 49% | 1016.7 hPa | 0 mm | 1.34 m/s, 25° | - | - |
| 1777917817 | 26.67° C | 50% | 1016.6 hPa | 0 mm | 3.13 m/s, 359° | - | - |
| 1777917695 | 26.67° C | 50% | 1016.6 hPa | 0 mm | 3.13 m/s, 359° | - | - |
| 1777917605 | 26.67° C | 50% | 1016.6 hPa | 0 mm | 3.13 m/s, 359° | - | - |
| 1777917444 | 26.67° C | 49% | 1016.6 hPa | 0 mm | 3.13 m/s, 7° | - | - |
| 1777917302 | 26.67° C | 49% | 1016.6 hPa | 0 mm | 3.13 m/s, 7° | - | - |
| 1777917126 | 26.67° C | 49% | 1016.7 hPa | 0 mm | 1.34 m/s, 113° | - | - |
| 1777917000 | 26.67° C | 49% | 1016.7 hPa | 0 mm | 1.34 m/s, 113° | - | - |
| 1777916886 | 26.67° C | 49% | 1016.7 hPa | 0 mm | 1.34 m/s, 38° | - | - |
| 1777916704 | 26.67° C | 49% | 1016.7 hPa | 0 mm | 1.34 m/s, 38° | - | - |
| 1777916704 | 26.67° C | 49% | 1016.7 hPa | 0 mm | 3.58 m/s, 23° | - | - |
| 1777916399 | 26.67° C | 49% | 1016.7 hPa | 0 mm | 3.58 m/s, 23° | - | - |
| 1777916020 | 26.67° C | 50% | 1016.7 hPa | 0 mm | 3.58 m/s, 84° | - | - |
* Rain latest hour (hover to see other rain measurements)
** Current wind speed in m/s (hover to see current wind gust speed)